Location: �perlecques
(50.8057°N, 2.1521°E)
Time: 07:15:53
(UTC+00:00)

SAR-Lupe-2 - Visible Passes

Search period start: 11 August 2020 00:00
Search period end: 21 August 2020 00:00
Orbit: 482 x 484 km, 98.1° (Epoch: 09 August)

Date Brightness Start Highest point End Pass type
(mag) Time Alt. Az. Time Alt. Az. Time Alt. Az.
11 Aug 5.5 20:23:37 10° ENE 20:25:24 13° E 20:26:18 12° ESE visible
11 Aug 4.1 21:55:34 10° N 21:59:06 57° WNW 22:00:38 30° SW visible
12 Aug 3.4 21:30:43 10° NNE 21:34:19 72° ESE 21:35:25 42° S visible
12 Aug 6.5 23:05:32 10° NNW 23:07:09 13° WNW 23:08:46 10° W visible
13 Aug 4.2 21:06:04 10° NNE 21:09:26 36° E 21:10:12 32° SE visible
13 Aug 5.9 22:39:49 10° NNW 22:42:35 21° WNW 22:44:31 14° WSW visible
14 Aug 5.0 20:41:44 10° NE 20:44:27 20° E 20:44:59 19° ESE visible
14 Aug 4.9 22:14:35 10° N 22:17:56 36° WNW 22:19:17 26° WSW visible
15 Aug 5.7 20:18:20 10° ENE 20:19:24 11° E 20:19:45 11° E visible
15 Aug 3.7 21:49:35 10° N 21:53:11 71° WNW 21:54:04 47° SW visible
16 Aug 3.6 21:24:48 10° NNE 21:28:22 58° ESE 21:28:51 52° SE visible
16 Aug 6.3 22:59:13 10° NNW 23:01:18 15° WNW 23:03:10 11° W visible
17 Aug 4.4 21:00:13 10° NE 21:03:27 30° E 21:03:37 30° ESE visible
17 Aug 5.6 22:33:43 10° N 22:36:42 25° WNW 22:37:56 20° W visible
18 Aug 5.3 20:36:02 10° NE 20:38:23 17° E 20:38:23 17° E visible
18 Aug 4.5 22:08:34 10° N 22:12:00 44° WNW 22:12:42 39° WSW visible
19 Aug 3.4 21:43:37 10° NNE 21:47:14 86° WNW 21:47:29 77° SSW visible
19 Aug 6.7 23:19:26 10° NW 23:19:57 10° NW 23:20:28 10° WNW visible
20 Aug 3.9 21:18:53 10° NNE 21:22:15 47° E 21:22:15 47° E visible
20 Aug 6.1 22:53:00 10° NNW 22:55:24 17° WNW 22:56:33 15° W visible
